Home   Weather   Birmingham   Past weeks

Flag for USA Past Weather in Birmingham, Alabama, USA — Yesterday and Last 2 Weeks

Now
62 °F

More clouds than sun.


Feels Like: 62 °F
Forecast: 60 / 68 °F
Wind: 5 mph from Southeast

Location: Birmingham International Airport

Current Time: Jan 19, 2017 at 9:32:55 am

Latest Report: Jan 19, 2017 at 8:53 am


Visibility: 8 mi

Pressure: 30.00 "Hg

Humidity: 93%

Dew Point: 60 °F

Location of BirminghamLocation

Past Weather in Birmingham — Graph

°F

Birmingham Temperature Yesterday

Maximum temperature yesterday: 67 °F (at 2:53 pm)
Minimum temperature yesterday: 56 °F (at 11:53 pm)
Average temperature yesterday: 61 °F

High & Low Weather Summary for the Past Weeks

 TemperatureHumidityPressure
High77 °F (Jan 13, 2:53 pm)100% (Jan 13, 10:53 pm)30.82 "Hg (Jan 13, 10:53 pm)
Low13 °F (Jan 8, 6:53 am)29% (Jan 9, 1:53 pm)29.91 "Hg (Jan 5, 1:53 pm)
Average51 °F71%30.28 "Hg
* Reported Jan 4 7:06 am — Jan 19 7:53 am, Birmingham, Weather by CustomWeather, © 2017

Note: Actual official high and low records may vary slightly from our data, if they occured in-between our weather recording intervals... More about our weather records

Advertising

Birmingham Weather History for the Previous 24 Hours

Scroll right to see more
 ConditionsComfort  
Time TempWeatherWind HumidityBarometerVisibility
7:53 am
Thu, Jan 19
62 °FOvercast.8 mph93%30.00 "Hg9 mi
6:53 am62 °FMostly cloudy.5 mph93%29.99 "Hg10 mi
5:53 am61 °FOvercast.3 mph93%30.00 "Hg10 mi
4:53 am62 °FLight rain. Mostly cloudy.5 mph90%30.01 "Hg10 mi
3:53 am61 °FOvercast.3 mph90%30.02 "Hg10 mi
2:53 am62 °FLight rain. Overcast.5 mph86%30.04 "Hg9 mi
1:53 am60 °FOvercast.No wind90%30.04 "Hg10 mi
12:53 am57 °FPassing clouds.No wind96%30.05 "Hg10 mi
11:53 pm
Wed, Jan 18
56 °FClear.No wind97%30.08 "Hg10 mi
10:53 pm57 °FPassing clouds.No wind93%30.09 "Hg10 mi
9:53 pm58 °FPassing clouds.No wind90%30.11 "Hg10 mi
8:53 pm58 °FPassing clouds.3 mph87%30.11 "Hg10 mi
7:53 pm58 °FPassing clouds.No wind87%30.11 "Hg10 mi
6:53 pm58 °FPassing clouds.3 mph90%30.12 "Hg10 mi
5:53 pm60 °FPassing clouds.No wind80%30.12 "Hg10 mi
4:53 pm65 °FScattered clouds.3 mph70%30.11 "Hg10 mi
3:53 pm66 °FPartly sunny.No wind63%30.11 "Hg10 mi
2:53 pm67 °FOvercast.3 mph55%30.11 "Hg10 mi
1:53 pm64 °FMostly cloudy.No wind65%30.14 "Hg10 mi
1:30 pm62 °FBroken clouds.No wind73%30.15 "Hg10 mi
12:53 pm62 °FOvercast.3 mph75%30.16 "Hg10 mi
11:53 am61 °FOvercast.3 mph81%30.17 "Hg7 mi
10:53 am60 °FLight rain. Fog.5 mph90%30.21 "Hg6 mi
9:53 am60 °FDrizzle. Fog.5 mph90%30.22 "Hg4 mi
Weather by CustomWeather, © 2017

See weather overviewHow to use our weather pages